Regional Weather Roundup
Issued by NWS

Home | Current Version | Previous Version | Text Only | Print | Product List | Glossary On
Versions: 1 2 3 4 5 6 7 8 9 10 11 12 13 14 15 16 17 18 19 20 21 22 23 24 25 26 27 28 29 30 31 32 33 34 35 36 37 38 39 40 41 42 43 44 45 46 47 48
000
ASPQ40 PGUM 040610
RWRPQ
WEATHER ROUNDUP FOR THE MARIANAS AND MICRONESIA
NATIONAL WEATHER SERVICE TIYAN GU
400 PM CHST FRI SEP 04 2015

GUZ001>004-040700-
MARIANA ISLANDS-

CITY           SKY/WX    TMP DP  RH WIND       PRES   REMARKS
GUAM AIRPORT   PTSUNNY   84  77  79 NW8       29.75F HX  94
ANDERSEN AFB   PTSUNNY   82  77  83 W3        29.76F HX  91
ROTA AIRPORT   PTSUNNY   81  77  89 NW6       29.77S
TINIAN AP      PTSUNNY   84  73  70 E6        29.73F HX  91
SAIPAN AP      PTSUNNY   84  77  79 E5        29.75S HX  94

$$

PMZ161-040700-
REPUBLIC OF PALAU-

CITY           SKY/WX    TMP DP  RH WIND       PRES   REMARKS
KOROR AP       PTSUNNY   88  77  70 W14       29.82F HX 100
KOROR WSO      PTSUNNY   88  77  70 W9        29.83F HX 100

$$

PMZ171>174-040700-
FEDERATED STATES OF MICRONESIA-

CITY           SKY/WX    TMP DP  RH WIND       PRES   REMARKS
YAP AIRPORT    CLOUDY    81  77  89 NW8       29.81S
CHUUK AP       MOSUNNY   86  79  79 SW8       29.81S HX  99
POHNPEI AP     PTSUNNY   86  79  79 W9        29.82F HX  99
POHNPEI WSO    PTSUNNY   84  77  79 W7        29.86R HX  94
KOSRAE AP      CLOUDY    84  77  79 W8        29.81R HX  94

$$

PMZ181-040700-
REPUBLIC OF THE MARSHALL ISLANDS-

CITY           SKY/WX    TMP DP  RH WIND       PRES   REMARKS
KWAJALEIN AP   MOSUNNY   81  75  83 SW8       29.77F
MAJURO AP      NOT AVBL
MAJURO WSO     MOCLDY    84  79  84 SW13      29.77R HX  96

$$




USA.gov is the U.S. government's official web portal to all federal, state and local government web resources and services.